Tracking 29932 objects as of 3-Dec-2024
HD Live streaming from Space Station
objects crossing your sky now

STARLINK-32191

Track STARLINK-32191 now!
10-day predictions
STARLINK-32191 is classified as:


NORAD ID: 60314
Int'l Code: 2024-133P
Perigee: 452.0 km
Apogee: 456.8 km
Inclination: 53.2 °
Period: 93.5 minutes
Semi major axis: 6825 km
RCS: Unknown
Launch date: July 28, 2024
Source: United States (US)
Launch site: AIR FORCE WESTERN TEST RANGE (AFWTR)
Your satellite tracking list
Your tracking list is empty




NASA's NSSDC Master Catalog

Two Line Element Set (TLE):
1 60314U 24133P   24337.58241555  .00020906  00000-0  53134-3 0  9997
2 60314  53.1558 286.7707 0003551  84.5191 275.6219 15.39608211 20901
Source of the keplerian elements: AFSPC